Regional Weather Roundup
Issued by NWS

Home | Current Version | Previous Version | Graphics & Text | Print | Product List | Glossary On
Versions: 1 2 3 4 5 6 7 8 9 10 11 12 13 14 15 16 17 18 19 20 21 22 23 24 25 26 27 28 29 30 31 32 33 34 35 36 37 38 39 40 41 42 43 44 45 46 47 48 49 50
000
ASUS43 KDTX 251310
RWRMI
MICHIGAN HOURLY REGIONAL WEATHER ROUNDUP
NATIONAL WEATHER SERVICE DETROIT/PONTIAC MI
800 AM EST THU DEC 25 2014

NOTE: "FAIR" INDICATES FEW OR NO CLOUDS BELOW 12,000 FEET WITH NO
SIGNIFICANT WEATHER AND/OR OBSTRUCTION TO VISIBILITY.

MIZ047>049-052>055-059>063-066>070-074>076-081>083-251400-
SOUTHEAST LOWER MICHIGAN

CITY           SKY/WX    TMP DP  RH WIND       PRES   REMARKS
ADRIAN         CLOUDY    37  32  82 W9        29.83R
ALMA           CLOUDY    35  32  87 W15G21    29.75R
ANN ARBOR      CLOUDY    37  33  85 W13       29.79R
BAD AXE        CLOUDY    34  33  96 W14G23    29.68R
DETROIT CITY   CLOUDY    40  33  76 W14G26    29.77R
DETROIT        CLOUDY    38  33  82 SW15      29.80R
FLINT          CLOUDY    38  32  79 W14       29.75R
GROSSE ILE     CLOUDY    37  34  87 SW13G18   29.79R
HILLSDALE      CLOUDY    36  35  96 W12G18    29.81R
HOWELL         CLOUDY    35  33  92 W10G18    29.77R

CITY           SKY/WX    TMP DP  RH WIND       PRES   REMARKS
JACKSON        CLOUDY    35  32  88 W12       29.79R
LAMBERTVILLE   CLOUDY    37  34  87 W13G18    29.84R
LANSING        CLOUDY    36  31  82 W12       29.78R
LAPEER         NOT AVBL
MASON          FLURRIES  34  32  93 W5        29.79R
MONROE         CLOUDY    37  36  93 SW14      29.81R
MT. CLEMENS    CLOUDY    39  38  99 W18G25    29.74R
PONTIAC        CLOUDY    36  32  85 W21G29    29.75R
PORT HOPE        N/A     36  30  79 W9G24     29.64R
PORT HURON     DRIZZLE   37  34  87 W5        29.74R
TRI CITIES     CLOUDY    37  31  78 W15       29.73R
YPSILANTI      CLOUDY    40  33  76 W15       29.80R
$$
MIZ043>046-050>051-056>058-064>065-071>073-077>080-251400-
SOUTHWEST LOWER MICHIGAN

CITY           SKY/WX    TMP DP  RH WIND       PRES   REMARKS
BATTLE CREEK   CLOUDY    37  31  78 W12       29.82R
BENTON HARBOR  CLOUDY    36  29  75 W15G25    29.85R
BIG RAPIDS     CLOUDY    34  32  91 W10       29.72R
COLDWATER      CLOUDY    35  33  93 MISG      29.83R
HOLLAND        CLOUDY    38  29  70 W16G26    29.81R
GRAND RAPIDS   CLOUDY    37  30  75 W13       29.79R
KALAMAZOO      CLOUDY    37  31  78 W12       29.83R
MARSHALL       CLOUDY    35  31  88 W12G20    29.80R
MUSKEGON       CLOUDY    38  28  67 W12G22    29.79R
$$
MIZ016>042-251400-
NORTHERN LOWER MICHIGAN

CITY           SKY/WX    TMP DP  RH WIND       PRES   REMARKS
ALPENA         CLOUDY    34  31  88 W10       29.60R
BEAVER ISLAND  CLOUDY    34  31  89 W15G21    29.63R
BELLAIRE       CLOUDY    37  31  80 SW5       29.66R
CADILLAC       CLOUDY    32  30  92 W9G16     29.67R
CHARLEVOIX     CLOUDY    36  32  87 W18G25    29.66R
FRANKFORT      PTSUNNY   35  31  86 W13G26    29.70R
GAYLORD        FLURRIES  32  29  88 W13G20    29.61R
GRAYLING       CLOUDY    33  32  96 W8        29.65R
HARBOR SPRINGS CLOUDY    35  29  80 W12G18    29.62R
HOUGHTON LAKE  CLOUDY    33  28  81 W13G21    29.66R
MANISTEE       PTCLDY    36  28  75 W18G24    29.72R
OSCODA         CLOUDY    34  32  93 W12       29.63R
PELLSTON       CLOUDY    35  28  75 W16G24    29.60R
TRAVERSE CITY  CLOUDY    36  30  79 W8        29.67R
$$
MIZ007>008-015-251400-
EASTERN UPPER MICHIGAN

CITY           SKY/WX    TMP DP  RH WIND       PRES   REMARKS
KINROSS        CLOUDY    34  34 100 W13       29.53R
MACKINAC ISLAN CLOUDY    33  33  99 W22G28    29.57R
NEWBERRY       CLOUDY    32  31  96 W9        29.56R
S. S. MARIE    FLURRIES  34  30  85 W16G22    29.50F
$$
MIZ004>006-011>014-085-251400-
CENTRAL UPPER MICHIGAN

CITY           SKY/WX    TMP DP  RH WIND       PRES   REMARKS
MANISTIQUE     CLOUDY    32  31  95 W6        29.61R
ESCANABA       MOCLDY    34  27  75 W9        29.62R
MENOMINEE      CLOUDY    32  28  86 W8        29.67R
SAWYER-GWINN   CLOUDY    32  28  86 W10       29.57R
$$
MIZ001>003-009>011-084-251400-
WESTERN UPPER MICHIGAN

CITY           SKY/WX    TMP DP  RH WIND       PRES   REMARKS
IRON MOUNTAIN  CLOUDY    32  27  81 SW9       29.61R
HOUGHTON       CLOUDY    32  29  88 W14       29.53S
COPPER HARBOR    N/A     35  31  85 VRB7      29.53R
IRONWOOD       CLOUDY    30  28  93 SW9G17    29.56R
$$

ABBREVIATIONS USED IN REMARKS
   TC - TEMPERATURE IN CELSIUS
  WCI - WIND CHILL INDEX
   HX - HEAT INDEX
  VSB - VISIBILITY




USA.gov is the U.S. government's official web portal to all federal, state and local government web resources and services.